When you browse on this site, cookies collect data to enhance your experience and personalize the content and advertising you see.
Visit our Privacy Policy to learn more. By continuing to use the site, you agree to this use of cookies and data.
  • în România
  • Lista ţărilor
  • Pe 7 zile
  • Temperatura apei
  • Hartă satelitară
  • Meteo pe hartă
  • Widget-uri
  • user-avatar
    Intrare

    Meteo pe oră la Nuremberg

    Astăzi, 19 Martie, Marţi

    Timp Temperatura Precipitaţii Vânt Presiune Umiditate
    00:00 +2°C° 0 mm 1 m/s 739 mmHg 89%
    01:00 +2°C° 0 mm 1 m/s 739 mmHg 92%
    02:00 +1°C° 0 mm 1 m/s 739 mmHg 92%
    03:00 +1°C° 0 mm 1 m/s 739 mmHg 92%
    04:00 +1°C° 0 mm 1 m/s 739 mmHg 92%
    05:00 +1°C° 0 mm 1 m/s 740 mmHg 91%
    06:00 +1°C° 0 mm 1 m/s 740 mmHg 90%
    07:00 +1°C° 0 mm 0 m/s 741 mmHg 86%
    08:00 +3°C° 0 mm 1 m/s 741 mmHg 76%
    09:00 +5°C° 0 mm 1 m/s 741 mmHg 67%
    10:00 +7°C° 0 mm 1 m/s 742 mmHg 57%
    11:00 +7°C° 0 mm 2 m/s 742 mmHg 53%
    12:00 +7°C° 0 mm 2 m/s 742 mmHg 49%
    13:00 +8°C° 0 mm 2 m/s 742 mmHg 45%
    14:00 +8°C° 0 mm 2 m/s 742 mmHg 46%
    15:00 +8°C° 0 mm 3 m/s 742 mmHg 47%
    16:00 +8°C° 0 mm 3 m/s 742 mmHg 48%
    17:00 +6°C° 0 mm 2 m/s 742 mmHg 54%
    18:00 +6°C° 0 mm 1 m/s 743 mmHg 60%
    19:00 +4°C° 0 mm 1 m/s 743 mmHg 66%
    20:00 +4°C° 0 mm 1 m/s 744 mmHg 67%
    21:00 +2°C° 0 mm 0 m/s 744 mmHg 69%
    22:00 +1°C° 0 mm 0 m/s 745 mmHg 70%
    23:00 +1°C° 0 mm 0 m/s 745 mmHg 71%

    Mâine, 20 Martie, Miercuri

    Timp Temperatura Precipitaţii Vânt Presiune Umiditate
    00:00 +1°C° 0 mm 0 m/s 745 mmHg 72%
    01:00 +1°C° 0 mm 0 m/s 746 mmHg 72%
    02:00 +1°C° 0 mm 0 m/s 746 mmHg 73%
    03:00 +1°C° 0 mm 0 m/s 746 mmHg 74%
    04:00 0°C° 0 mm 0 m/s 746 mmHg 74%
    05:00 +1°C° 0 mm 0 m/s 746 mmHg 74%
    06:00 +1°C° 0 mm 0 m/s 746 mmHg 73%
    07:00 +1°C° 0 mm 0 m/s 747 mmHg 72%
    08:00 +3°C° 0 mm 0 m/s 747 mmHg 65%
    09:00 +5°C° 0 mm 0 m/s 747 mmHg 57%
    10:00 +8°C° 0 mm 0 m/s 748 mmHg 49%
    11:00 +10°C° 0 mm 1 m/s 748 mmHg 45%
    12:00 +10°C° 0 mm 1 m/s 748 mmHg 42%
    13:00 +11°C° 0 mm 1 m/s 748 mmHg 38%
    14:00 +11°C° 0 mm 1 m/s 747 mmHg 39%
    15:00 +11°C° 0 mm 1 m/s 747 mmHg 39%
    16:00 +11°C° 0 mm 1 m/s 747 mmHg 39%
    17:00 +9°C° 0 mm 1 m/s 747 mmHg 45%
    18:00 +8°C° 0 mm 1 m/s 747 mmHg 52%
    19:00 +6°C° 0 mm 1 m/s 747 mmHg 58%
    20:00 +5°C° 0 mm 1 m/s 747 mmHg 60%
    21:00 +5°C° 0 mm 1 m/s 748 mmHg 62%
    22:00 +3°C° 0 mm 0 m/s 748 mmHg 63%
    23:00 +4°C° 0 mm 1 m/s 748 mmHg 64%

    Poimâine, 21 Martie, Joi

    Timp Temperatura Precipitaţii Vânt Presiune Umiditate
    00:00 +4°C° 0 mm 1 m/s 748 mmHg 66%
    01:00 +3°C° 0 mm 1 m/s 748 mmHg 67%
    02:00 +3°C° 0 mm 1 m/s 748 mmHg 67%
    03:00 +3°C° 0 mm 1 m/s 747 mmHg 68%
    04:00 +3°C° 0 mm 1 m/s 747 mmHg 68%
    05:00 +3°C° 0 mm 1 m/s 747 mmHg 68%
    06:00 +3°C° 0 mm 1 m/s 747 mmHg 68%
    07:00 +3°C° 0 mm 1 m/s 748 mmHg 68%
    08:00 +5°C° 0 mm 1 m/s 748 mmHg 61%
    09:00 +7°C° 0 mm 1 m/s 748 mmHg 54%
    10:00 +10°C° 0 mm 1 m/s 748 mmHg 47%
    11:00 +10°C° 0 mm 2 m/s 747 mmHg 43%
    12:00 +13°C° 0 mm 2 m/s 747 mmHg 39%
    13:00 +14°C° 0 mm 2 m/s 747 mmHg 35%
    14:00 +14°C° 0 mm 2 m/s 746 mmHg 36%
    15:00 +15°C° 0 mm 2 m/s 746 mmHg 37%
    16:00 +15°C° 0 mm 2 m/s 745 mmHg 38%
    17:00 +13°C° 0 mm 2 m/s 745 mmHg 45%
    18:00 +10°C° 0 mm 2 m/s 745 mmHg 52%
    19:00 +9°C° 0 mm 1 m/s 745 mmHg 59%
    20:00 +8°C° 0 mm 1 m/s 746 mmHg 61%
    21:00 +8°C° 0 mm 1 m/s 746 mmHg 64%
    22:00 +6°C° 0 mm 2 m/s 746 mmHg 66%
    23:00 +6°C° 0 mm 1 m/s 746 mmHg 68%

    22 Martie, Vineri

    Timp Temperatura Precipitaţii Vânt Presiune Umiditate
    00:00 +6°C° 0 mm 1 m/s 746 mmHg 69%
    01:00 +5°C° 0 mm 1 m/s 745 mmHg 70%
    02:00 +5°C° 0 mm 1 m/s 745 mmHg 71%
    03:00 +5°C° 0 mm 1 m/s 745 mmHg 72%
    04:00 +5°C° 0 mm 1 m/s 745 mmHg 73%
    05:00 +5°C° 0 mm 1 m/s 745 mmHg 73%
    06:00 +5°C° 0 mm 1 m/s 745 mmHg 73%
    07:00 +5°C° 0 mm 1 m/s 745 mmHg 73%
    08:00 +7°C° 0 mm 1 m/s 745 mmHg 65%
    09:00 +10°C° 0 mm 1 m/s 745 mmHg 57%
    10:00 +12°C° 0 mm 1 m/s 745 mmHg 49%
    11:00 +14°C° 0 mm 1 m/s 745 mmHg 46%
    12:00 +15°C° 0 mm 1 m/s 744 mmHg 42%
    13:00 +18°C° 0 mm 1 m/s 744 mmHg 39%
    14:00 +18°C° 0 mm 1 m/s 743 mmHg 39%
    15:00 +18°C° 0 mm 1 m/s 743 mmHg 39%
    16:00 +19°C° 0 mm 1 m/s 742 mmHg 39%
    17:00 +16°C° 0 mm 1 m/s 742 mmHg 45%
    18:00 +13°C° 0 mm 1 m/s 742 mmHg 52%
    19:00 +11°C° 0 mm 1 m/s 742 mmHg 58%
    20:00 +11°C° 0 mm 1 m/s 742 mmHg 61%
    21:00 +10°C° 0 mm 1 m/s 743 mmHg 64%
    22:00 +9°C° 0 mm 1 m/s 743 mmHg 66%
    23:00 +8°C° 0 mm 0 m/s 743 mmHg 68%

    23 Martie, Sâmbătă

    Timp Temperatura Precipitaţii Vânt Presiune Umiditate
    00:00 +7°C° 0 mm 0 m/s 743 mmHg 69%
    01:00 +7°C° 0 mm 0 m/s 743 mmHg 70%
    02:00 +6°C° 0 mm 0 m/s 742 mmHg 72%
    03:00 +6°C° 0 mm 0 m/s 742 mmHg 73%
    04:00 +5°C° 0 mm 0 m/s 742 mmHg 74%
    05:00 +6°C° 0 mm 1 m/s 742 mmHg 74%
    06:00 +6°C° 0 mm 1 m/s 742 mmHg 75%
    07:00 +6°C° 0 mm 1 m/s 743 mmHg 75%
    08:00 +9°C° 0 mm 1 m/s 743 mmHg 68%
    09:00 +10°C° 0 mm 0 m/s 743 mmHg 61%
    10:00 +13°C° 0 mm 0 m/s 743 mmHg 54%
    11:00 +14°C° 0 mm 0 m/s 742 mmHg 50%
    12:00 +16°C° 0 mm 0 m/s 742 mmHg 46%
    13:00 +17°C° 0 mm 0 m/s 742 mmHg 42%
    14:00 +17°C° 0 mm 0 m/s 742 mmHg 42%
    15:00 +17°C° 0 mm 0 m/s 741 mmHg 41%
    16:00 +17°C° 0 mm 0 m/s 741 mmHg 41%
    17:00 +15°C° 0 mm 0 m/s 740 mmHg 47%
    18:00 +13°C° 0 mm 0 m/s 740 mmHg 53%
    19:00 +11°C° 0 mm 0 m/s 740 mmHg 59%
    20:00 +10°C° 0 mm 0 m/s 740 mmHg 62%
    21:00 +10°C° 0 mm 0 m/s 740 mmHg 65%
    22:00 +9°C° 0 mm 0 m/s 740 mmHg 67%
    23:00 +9°C° 0 mm 0 m/s 740 mmHg 69%

    24 Martie, Duminică

    Timp Temperatura Precipitaţii Vânt Presiune Umiditate
    00:00 +8°C° 0 mm 0 m/s 740 mmHg 71%
    01:00 +8°C° 0 mm 0 m/s 740 mmHg 73%
    02:00 +7°C° 0 mm 0 m/s 740 mmHg 75%
    03:00 +8°C° 0 mm 1 m/s 739 mmHg 77%
    04:00 +8°C° 0 mm 1 m/s 739 mmHg 79%
    05:00 +8°C° 0 mm 1 m/s 739 mmHg 80%
    06:00 +8°C° 0 mm 1 m/s 739 mmHg 81%
    07:00 +7°C° 0 mm 1 m/s 740 mmHg 82%
    08:00 +10°C° 0 mm 1 m/s 740 mmHg 76%
    09:00 +12°C° 0 mm 2 m/s 740 mmHg 69%
    10:00 +14°C° 0 mm 2 m/s 740 mmHg 62%
    11:00 +14°C° 0 mm 3 m/s 740 mmHg 59%
    12:00 +16°C° 0 mm 3 m/s 739 mmHg 56%
    13:00 +17°C° 0 mm 3 m/s 739 mmHg 53%
    14:00 +17°C° 0 mm 3 m/s 739 mmHg 54%
    15:00 +16°C° 0 mm 3 m/s 739 mmHg 54%
    16:00 +16°C° 0 mm 3 m/s 739 mmHg 55%
    17:00 +14°C° 0.1 mm 3 m/s 739 mmHg 63%
    18:00 +13°C° 0.1 mm 3 m/s 739 mmHg 70%
    19:00 +11°C° 0.1 mm 3 m/s 740 mmHg 78%
    20:00 +11°C° 0 mm 3 m/s 740 mmHg 80%
    21:00 +10°C° 0 mm 3 m/s 741 mmHg 81%
    22:00 +9°C° 0 mm 3 m/s 741 mmHg 83%
    23:00 +8°C° 0 mm 3 m/s 742 mmHg 83%
    Arată mai mult